sat.trackr.live / text

‹ back to catalog

KUIPER-00084

NORAD 64830 · 2025-151Q

PAYLOAD ACTIVE UNKNOWN

§ Identity

Operator
Country
US
Launch date
2025-07-16
Launch site
AFETR
Launch vehicle
Mass (kg)
RCS (m²)

External: N2YO · Heavens-Above · Gunter

§ Orbital elements

Epoch: 2026-05-25T04:45:45.519264Z

Period
97.30 min
Inclination
51.9031°
Eccentricity
0.0000750
Mean motion
14.79917197 rev/d
Perigee alt
629.1 km
Apogee alt
630.1 km
Semi-major
7,007.7 km
B*
1.9736e-4
RAAN
327.2599°
Arg perigee
100.3759°
Mean anomaly
259.7288°
Rev number
4,656

§ Raw data

KUIPER-000841 64830U 25151Q   26145.19844351  .00001283  00000+0  19736-3 0  99902 64830  51.9031 327.2599 0000750 100.3759 259.7288 14.79917197 46563

JSON: /api/v1/satellites/64830 · /tle

For live sub-satellite position, see the globe view (requires WebGL).

§ Visibility from observer

Set your observer location to see the next 7 days of passes ≥ 10°. The values pass through the URL so the page stays shareable.

No JS? Fill the form by hand. The geolocation button needs JavaScript.